Weather History for Amritsar, India

Change the Weather History Date:

Friday, November 2, 2012

  Actual Average Record
Temperature  
Mean Temperature 69 °F -  
Max Temperature 86 °F 82 °F 91 °F (2001)
Min Temperature 52 °F 57 °F 46 °F (2004)
Cooling Degree Days 4    
Growing Degree Days 19 (Base 50)    
Moisture  
Dew Point 57 °F    
Average Humidity 74    
Maximum Humidity 100    
Minimum Humidity 29    
Precipitation  
Precipitation 0.00 in - - ()
Sea Level Pressure  
Sea Level Pressure 29.91 in    
Wind  
Wind Speed 1 mph ()    
Max Wind Speed 6 mph    
Max Gust Speed -    
Visibility 1.7 miles    
Events Fog    
Averages and records for this station are not official NWS values.
T = Trace of Precipitation, MM = Missing Value Source: Averaged Metar Reports

Daily Weather History Graph

Daily Weather History Graph

Search for Another Location

Airport:

Trip Planner

Search our weather history database for the weather conditions in past years. The results will help you decide how hot, cold, wet, or windy it might be!

Date:

Astronomy

Nov. 02, 2012 Rise Set
Actual Time 6:47 AM IST 5:40 PM IST
Civil Twilight 6:22 AM IST 6:05 PM IST
Nautical Twilight 5:53 AM IST 6:34 PM IST
Astronomical Twilight 5:25 AM IST 7:02 PM IST
Moon 8:11 PM IST (11/2) 9:39 AM IST (11/2)
Length of Visible Light 11h 42m
Length of Day
10h 52m
Waning Gibbous, 90% of the Moon is Illuminated
Nov 2
Waning Gibbous
Nov 7
Last Quarter
Nov 14
New
Nov 20
First Quarter
Nov 28
Full

Hourly Weather History & Observations

Time (IST) Temp. Heat Index Dew Point Humidity Pressure Visibility Wind Dir Wind Speed Gust Speed Precip Events Conditions
12:00 AM 62.6 °F - 62.6 °F 100% 29.92 in 0.7 mi Calm Calm - N/A   Mist
12:30 AM 60.8 °F - 60.8 °F 100% 29.92 in 0.7 mi Calm Calm - N/A   Mist
1:00 AM 60.8 °F - 60.8 °F 100% 29.92 in 0.7 mi Calm Calm - N/A   Mist
3:30 AM 57.2 °F - 57.2 °F 100% 29.92 in 0.7 mi Calm Calm - N/A   Mist
5:00 AM 55.4 °F - 55.4 °F 100% 29.89 in 0.7 mi Calm Calm - N/A   Mist
5:30 AM 55 °F - 55 °F 100% 29.91 in 1 mi Calm Calm - -   Mist
5:30 AM 57.2 °F - 57.2 °F 100% 29.92 in 0.7 mi Calm Calm - N/A   Mist
7:30 AM 53.6 °F - 53.6 °F 100% 29.95 in 0.4 mi Calm Calm - N/A Fog Shallow Fog
8:00 AM 55.4 °F - 55.4 °F 100% 29.95 in 0.4 mi Calm Calm - N/A Fog Shallow Fog
8:30 AM 58 °F - 58 °F 100% 29.95 in 1 mi Calm Calm - -   Mist
9:00 AM 60.8 °F - 59.0 °F 94% 29.95 in 0.6 mi Calm Calm - N/A   Mist
10:00 AM 64.4 °F - 59.0 °F 83% 29.98 in 1.9 mi Calm Calm - N/A   Haze
12:30 PM 82.4 °F 81.7 °F 55.4 °F 39% 29.95 in 3.1 mi Variable 2.3 mph - N/A   Smoke
1:00 PM 82.4 °F 81.7 °F 55.4 °F 39% 29.95 in 3.1 mi Variable 3.5 mph - N/A   Smoke
2:00 PM 84.2 °F 83.0 °F 55.4 °F 37% 29.92 in 3.1 mi Variable 3.5 mph - N/A   Smoke
2:30 PM 83 °F - 56 °F 29% 29.86 in 2 mi WNW 5.8 mph - -   Smoke
2:30 PM 84.2 °F 83.0 °F 55.4 °F 37% 29.89 in 3.1 mi West 5.8 mph - N/A   Smoke
3:00 PM 84.2 °F 83.0 °F 55.4 °F 37% 29.89 in 3.1 mi West 3.5 mph - N/A   Smoke
4:00 PM 84.2 °F 83.0 °F 55.4 °F 37% 29.89 in 3.1 mi Variable 2.3 mph - N/A   Smoke
5:30 PM 80 °F - 57 °F 35% 29.83 in 2 mi Calm Calm - -   Smoke
6:30 PM 71.6 °F - 60.8 °F 69% 29.86 in 3.1 mi Calm Calm - N/A   Smoke
8:00 PM 68.0 °F - 60.8 °F 78% 29.89 in - Calm Calm - N/A   Haze
8:30 PM 68.0 °F - 60.8 °F 78% 29.89 in - Calm Calm - N/A   Haze